Date/Time,Expocode,Latitude,Longitude,Depth,version,SOCAT_DOI,QC_Flag,P_sal,Temp,Temperature of Equilibration,Atmospheric Pressure,Equilibrator Pressure (relative),WOA_SSS,NCEP_SLP,ETOPO2_depth,dist_to_land,GVCO2,CO2 Mole Fraction,xCO2water_SST_dry,pCO2 In Water - Equilibrator Temperature,pCO2,fCO2water_equ_wet,fCO2water_SST_wet,fCO2,fCO2rec_src,fCO2  QC Flag,pCO2  QC Flag,P_sal  QC Flag,Temp  QC Flag
2019-10-16T04:20:01.000Z,26NA20191009,62.464,-50.535,,2020.0N,SOCATENHANCEDDOI,B,,3.989,4.28,1010.34,1010.7,35.0,1013.5,179.0,21.0,,,,,,,,,0,9,9,9,9
2019-10-16T04:21:33.000Z,26NA20191009,62.47,-50.54,,2020.0N,SOCATENHANCEDDOI,B,,3.992,4.28,1010.35,1010.7,35.0,1013.5,177.0,21.0,,,,,,,,,0,9,9,9,9
2019-10-16T04:23:05.000Z,26NA20191009,62.477,-50.545,,2020.0N,SOCATENHANCEDDOI,B,,3.996,4.28,1010.35,1010.7,35.0,1013.5,176.0,21.0,,,,,,,,,0,9,9,9,9
2019-10-16T04:24:38.000Z,26NA20191009,62.483,-50.551,,2020.0N,SOCATENHANCEDDOI,B,,3.999,4.29,1010.39,1010.5,35.0,1013.5,175.0,21.0,,,,,,,,,0,9,9,9,9
2019-10-16T04:26:11.000Z,26NA20191009,62.49,-50.556,,2020.0N,SOCATENHANCEDDOI,B,,4.012,4.3,1010.32,1010.6,35.0,1013.5,175.0,21.0,,,,,,,,,0,9,9,9,9
2019-10-16T04:27:43.000Z,26NA20191009,62.496,-50.561,,2020.0N,SOCATENHANCEDDOI,B,,4.055,4.31,1010.4,1010.4,35.0,1013.5,176.0,20.0,,,,,,,,,0,9,9,9,9
2019-10-16T04:29:16.000Z,26NA20191009,62.503,-50.566,,2020.0N,SOCATENHANCEDDOI,B,,4.032,4.34,1010.43,1010.5,35.0,1013.5,177.0,21.0,,,,,,,,,0,9,9,9,9
2019-10-16T04:30:48.000Z,26NA20191009,62.509,-50.572,,2020.0N,SOCATENHANCEDDOI,B,,4.02,4.32,1010.42,1010.4,35.0,1013.5,179.0,21.0,,,,,,,,,0,9,9,9,9
2019-10-16T04:32:21.000Z,26NA20191009,62.516,-50.577,,2020.0N,SOCATENHANCEDDOI,B,,4.013,4.32,1010.45,1010.3,35.0,1013.5,181.0,21.0,,,,,,,,,0,9,9,9,9
2019-10-16T04:33:53.000Z,26NA20191009,62.522,-50.582,,2020.0N,SOCATENHANCEDDOI,B,,3.998,4.3,1010.41,1010.3,35.0,1013.5,181.0,21.0,,,,,,,,,0,9,9,9,9
2019-10-16T04:35:26.000Z,26NA20191009,62.529,-50.587,,2020.0N,SOCATENHANCEDDOI,B,,3.986,4.28,1010.4,1010.2,35.0,1013.5,178.0,22.0,,,,,,,,,0,9,9,9,9
2019-10-16T04:39:56.000Z,26NA20191009,62.548,-50.602,,2020.0N,SOCATENHANCEDDOI,B,,3.971,4.27,1010.38,1010.3,35.0,1013.5,173.0,22.0,,,,,,,,,0,9,9,9,9
2019-10-16T04:41:26.000Z,26NA20191009,62.554,-50.607,,2020.0N,SOCATENHANCEDDOI,B,,3.97,4.27,1010.42,1010.3,35.0,1013.5,174.0,23.0,,,,,,,,,0,9,9,9,9
2019-10-16T04:42:56.000Z,26NA20191009,62.561,-50.612,,2020.0N,SOCATENHANCEDDOI,B,,3.963,4.27,1010.4,1010.3,35.0,1013.5,175.0,23.0,,,,,,,,,0,9,9,9,9
2019-10-16T04:47:26.000Z,26NA20191009,62.58,-50.628,,2020.0N,SOCATENHANCEDDOI,B,,3.982,4.27,1010.41,1010.2,35.0,1013.5,181.0,24.0,,,,,,,,,0,9,9,9,9
2019-10-16T04:49:18.000Z,26NA20191009,62.586,-50.639,,2020.0N,SOCATENHANCEDDOI,B,,3.998,4.28,1010.42,1010.6,35.0,1013.5,188.0,24.0,,,,,,,,,0,9,9,9,9
2019-10-16T04:50:48.000Z,26NA20191009,62.591,-50.65,,2020.0N,SOCATENHANCEDDOI,B,,3.981,4.29,1010.43,1010.7,35.0,1013.5,195.0,25.0,,,,,,,,,0,9,9,9,9
2019-10-16T04:55:18.000Z,26NA20191009,62.599,-50.69,,2020.0N,SOCATENHANCEDDOI,B,,3.98,4.28,1010.3,1010.5,35.0,1013.5,202.0,27.0,,,,,,,,,0,9,9,9,9
2019-10-16T04:56:48.000Z,26NA20191009,62.6,-50.704,,2020.0N,SOCATENHANCEDDOI,B,,4.001,4.28,1010.19,1010.6,35.0,1013.5,201.0,28.0,,,,,,,,,0,9,9,9,9
2019-10-16T04:58:18.000Z,26NA20191009,62.602,-50.718,,2020.0N,SOCATENHANCEDDOI,B,,4.009,4.29,1010.38,1010.6,35.0,1013.5,201.0,28.0,,,,,,,,,0,9,9,9,9
2019-10-16T05:02:48.000Z,26NA20191009,62.612,-50.755,,2020.0N,SOCATENHANCEDDOI,B,,4.01,4.29,1010.39,1010.7,35.0,1013.5,199.0,30.0,,,,,,,,,0,9,9,9,9
2019-10-16T05:04:18.000Z,26NA20191009,62.617,-50.765,,2020.0N,SOCATENHANCEDDOI,B,,4.031,4.3,1010.4,1010.8,35.0,1013.5,199.0,31.0,,,,,,,,,0,9,9,9,9
2019-10-16T05:05:49.000Z,26NA20191009,62.622,-50.774,,2020.0N,SOCATENHANCEDDOI,B,,4.088,4.32,1010.39,1010.7,35.0,1013.5,199.0,31.0,,,,,,,,,0,9,9,9,9
2019-10-16T05:10:23.000Z,26NA20191009,62.641,-50.79,,2020.0N,SOCATENHANCEDDOI,B,,4.104,4.36,1010.35,1010.8,35.0,1013.5,199.0,32.0,,,,,,,,,0,9,9,9,9
2019-10-16T05:14:57.000Z,26NA20191009,62.661,-50.799,,2020.0N,SOCATENHANCEDDOI,B,,3.963,4.31,1010.44,1010.8,35.0,1013.5,201.0,32.0,,,,,,,,,0,9,9,9,9
2019-10-16T05:19:27.000Z,26NA20191009,62.68,-50.807,,2020.0N,SOCATENHANCEDDOI,B,,3.912,4.22,1010.42,1010.9,35.0,1013.5,201.0,33.0,,,,,,,,,0,9,9,9,9
2019-10-16T05:20:58.000Z,26NA20191009,62.687,-50.808,,2020.0N,SOCATENHANCEDDOI,B,,3.902,4.21,1010.43,1011.0,35.0,1013.5,201.0,33.0,,,,,,,,,0,9,9,9,9
2019-10-16T05:22:28.000Z,26NA20191009,62.693,-50.81,,2020.0N,SOCATENHANCEDDOI,B,,3.894,4.2,1010.42,1011.1,35.0,1013.5,201.0,33.0,,,,,,,,,0,9,9,9,9
2019-10-16T05:26:58.000Z,26NA20191009,62.713,-50.813,,2020.0N,SOCATENHANCEDDOI,B,,3.887,4.18,1010.53,1011.0,35.0,1013.5,201.0,33.0,,,,,,,,,0,9,9,9,9
2019-10-16T05:28:28.000Z,26NA20191009,62.72,-50.815,,2020.0N,SOCATENHANCEDDOI,B,,3.886,4.18,1010.44,1011.0,35.0,1013.5,201.0,33.0,,,,,,,,,0,9,9,9,9
2019-10-16T05:29:58.000Z,26NA20191009,62.727,-50.816,,2020.0N,SOCATENHANCEDDOI,B,,3.883,4.18,1010.46,1011.0,35.0,1013.5,200.0,33.0,,,,,,,,,0,9,9,9,9
2019-10-16T05:34:28.000Z,26NA20191009,62.745,-50.828,,2020.0N,SOCATENHANCEDDOI,B,,3.894,4.17,1010.58,1011.1,35.0,1013.5,199.0,34.0,,,,,,,,,0,9,9,9,9
2019-10-16T05:35:58.000Z,26NA20191009,62.751,-50.835,,2020.0N,SOCATENHANCEDDOI,B,,3.899,4.18,1010.56,1011.2,35.0,1013.5,199.0,34.0,,,,,,,,,0,9,9,9,9
2019-10-16T05:37:28.000Z,26NA20191009,62.757,-50.841,,2020.0N,SOCATENHANCEDDOI,B,,3.907,4.19,1010.52,1011.2,35.0,1013.5,199.0,34.0,,,,,,,,,0,9,9,9,9
2019-10-16T05:41:59.000Z,26NA20191009,62.775,-50.861,,2020.0N,SOCATENHANCEDDOI,B,,3.942,4.21,1010.5,1011.2,35.0,1013.5,198.0,35.0,,,,,,,,,0,9,9,9,9
2019-10-16T05:43:29.000Z,26NA20191009,62.781,-50.868,,2020.0N,SOCATENHANCEDDOI,B,,3.949,4.23,1010.49,1011.2,35.0,1013.5,198.0,35.0,,,,,,,,,0,9,9,9,9
2019-10-16T05:44:59.000Z,26NA20191009,62.787,-50.874,,2020.0N,SOCATENHANCEDDOI,B,,3.946,4.24,1010.5,1011.2,35.0,1013.5,198.0,35.0,,,,,,,,,0,9,9,9,9
2019-10-16T05:49:29.000Z,26NA20191009,62.805,-50.894,,2020.0N,SOCATENHANCEDDOI,B,,3.944,4.25,1010.43,1011.2,35.0,1013.5,200.0,35.0,,,,,,,,,0,9,9,9,9
2019-10-16T05:51:20.000Z,26NA20191009,62.812,-50.902,,2020.0N,SOCATENHANCEDDOI,B,,3.922,4.23,1010.41,1011.3,35.0,1013.5,201.0,35.0,,,,,,,,,0,9,9,9,9
2019-10-16T05:52:50.000Z,26NA20191009,62.818,-50.909,,2020.0N,SOCATENHANCEDDOI,B,,3.91,4.21,1010.38,1011.4,35.0,1013.5,202.0,36.0,,,,,,,,,0,9,9,9,9
2019-10-16T05:54:20.000Z,26NA20191009,62.824,-50.916,,2020.0N,SOCATENHANCEDDOI,B,,3.904,4.2,1010.4,1011.2,35.0,1013.5,202.0,36.0,,,,,,,,,0,9,9,9,9
2019-10-16T05:55:51.000Z,26NA20191009,62.83,-50.923,,2020.0N,SOCATENHANCEDDOI,B,,3.91,4.19,1010.38,1011.3,35.0,1013.5,203.0,36.0,,,,,,,,,0,9,9,9,9
2019-10-16T06:00:47.000Z,26NA20191009,62.849,-50.946,,2020.0N,SOCATENHANCEDDOI,B,,3.916,4.2,1010.4,1011.1,35.0,1016.4,203.0,35.0,,333.9,,,326.6,,325.3,325.241,4,2,9,9,9
2019-10-16T06:02:19.000Z,26NA20191009,62.855,-50.953,,2020.0N,SOCATENHANCEDDOI,B,,3.913,4.21,1010.36,1011.1,35.0,1016.4,202.0,34.0,,335.0,,,327.5,,326.2,326.137,4,2,9,9,9
2019-10-16T06:03:52.000Z,26NA20191009,62.861,-50.96,,2020.0N,SOCATENHANCEDDOI,B,,3.906,4.2,1010.38,1011.0,35.0,1016.4,200.0,34.0,,335.8,,,328.3,,326.9,326.934,4,2,9,9,9
2019-10-16T06:05:24.000Z,26NA20191009,62.867,-50.967,,2020.0N,SOCATENHANCEDDOI,B,,3.909,4.2,1010.37,1010.9,35.0,1016.4,198.0,34.0,,336.2,,,328.7,,327.4,327.332,4,2,9,9,9
2019-10-16T06:06:57.000Z,26NA20191009,62.873,-50.974,,2020.0N,SOCATENHANCEDDOI,B,,3.926,4.21,1010.39,1010.8,35.0,1016.4,198.0,33.0,,337.0,,,329.5,,328.1,328.129,4,2,9,9,9
2019-10-16T06:08:29.000Z,26NA20191009,62.879,-50.982,,2020.0N,SOCATENHANCEDDOI,B,,3.944,4.22,1010.37,1010.9,35.0,1016.4,198.0,33.0,,338.1,,,330.7,,329.4,329.324,4,2,9,9,9
2019-10-16T06:10:02.000Z,26NA20191009,62.885,-50.989,,2020.0N,SOCATENHANCEDDOI,B,,3.951,4.23,1010.37,1010.7,35.0,1016.4,198.0,33.0,,339.4,,,331.9,,330.5,330.52,4,2,9,9,9
2019-10-16T06:11:34.000Z,26NA20191009,62.891,-50.996,,2020.0N,SOCATENHANCEDDOI,B,,3.961,4.25,1010.36,1010.8,35.0,1016.4,197.0,32.0,,340.6,,,333.0,,331.6,331.615,4,2,9,9,9
2019-10-16T06:13:07.000Z,26NA20191009,62.897,-51.004,,2020.0N,SOCATENHANCEDDOI,B,,3.954,4.25,1010.33,1010.8,32.948,1016.4,197.0,32.0,,341.4,,,333.6,,332.3,332.213,4,2,9,9,9
2019-10-16T06:14:39.000Z,26NA20191009,62.903,-51.011,,2020.0N,SOCATENHANCEDDOI,B,,3.949,4.26,1010.38,1010.7,32.948,1016.4,197.0,32.0,,341.2,,,333.2,,331.8,331.814,4,2,9,9,9
2019-10-16T06:16:12.000Z,26NA20191009,62.909,-51.018,,2020.0N,SOCATENHANCEDDOI,B,,3.942,4.24,1010.39,1010.7,32.948,1016.4,198.0,31.0,,340.7,,,332.8,,331.5,331.416,4,2,9,9,9
2019-10-16T06:17:44.000Z,26NA20191009,62.915,-51.026,,2020.0N,SOCATENHANCEDDOI,B,,3.925,4.24,1010.41,1010.6,32.948,1016.4,199.0,31.0,,340.0,,,331.9,,330.6,330.519,4,2,9,9,9
2019-10-16T06:19:17.000Z,26NA20191009,62.921,-51.033,,2020.0N,SOCATENHANCEDDOI,B,,3.896,4.22,1010.43,1010.6,32.948,1016.4,198.0,31.0,,338.9,,,330.8,,329.4,329.423,4,2,9,9,9
2019-10-16T06:20:49.000Z,26NA20191009,62.927,-51.041,,2020.0N,SOCATENHANCEDDOI,B,,3.88,4.19,1010.4,1010.5,32.948,1016.4,196.0,30.0,,337.6,,,329.6,,328.2,328.228,4,2,9,9,9
2019-10-16T06:22:22.000Z,26NA20191009,62.933,-51.048,,2020.0N,SOCATENHANCEDDOI,B,,3.866,4.18,1010.38,1010.5,32.948,1016.4,194.0,30.0,,336.5,,,328.5,,327.1,327.133,4,2,9,9,9
2019-10-16T06:23:54.000Z,26NA20191009,62.939,-51.055,,2020.0N,SOCATENHANCEDDOI,B,,3.878,4.16,1010.42,1010.4,32.948,1016.4,193.0,30.0,,336.0,,,328.4,,327.1,327.033,4,2,9,9,9
2019-10-16T06:25:27.000Z,26NA20191009,62.945,-51.063,,2020.0N,SOCATENHANCEDDOI,B,,3.921,4.18,1010.44,1010.5,32.948,1016.4,192.0,30.0,,336.2,,,329.0,,327.6,327.632,4,2,9,9,9
2019-10-16T06:26:59.000Z,26NA20191009,62.951,-51.07,,2020.0N,SOCATENHANCEDDOI,B,,3.922,4.22,1010.41,1010.2,32.948,1016.4,191.0,29.0,,338.7,,,330.8,,329.4,329.424,4,2,9,9,9
2019-10-16T06:28:32.000Z,26NA20191009,62.957,-51.078,,2020.0N,SOCATENHANCEDDOI,B,,3.921,4.21,1010.38,1010.3,32.948,1016.4,191.0,29.0,,341.2,,,333.4,,332.0,332.014,4,2,9,9,9
2019-10-16T06:30:04.000Z,26NA20191009,62.963,-51.086,,2020.0N,SOCATENHANCEDDOI,B,,3.932,4.22,1010.4,1010.4,32.948,1016.4,192.0,29.0,,342.9,,,335.1,,333.7,333.707,4,2,9,9,9
2019-10-16T06:31:37.000Z,26NA20191009,62.968,-51.093,,2020.0N,SOCATENHANCEDDOI,B,,3.932,4.23,1010.39,1010.4,32.948,1016.4,193.0,29.0,,344.2,,,336.2,,334.8,334.802,4,2,9,9,9
2019-10-16T06:33:09.000Z,26NA20191009,62.974,-51.101,,2020.0N,SOCATENHANCEDDOI,B,,3.931,4.22,1010.4,1010.3,32.948,1016.4,195.0,28.0,,345.1,,,337.2,,335.8,335.798,4,2,9,9,9
2019-10-16T06:34:42.000Z,26NA20191009,62.98,-51.109,,2020.0N,SOCATENHANCEDDOI,B,,3.92,4.23,1010.39,1010.2,32.948,1016.4,197.0,28.0,,345.9,,,337.6,,336.2,336.196,4,2,9,9,9
2019-10-16T06:36:15.000Z,26NA20191009,62.986,-51.116,,2020.0N,SOCATENHANCEDDOI,B,,3.949,4.22,1010.42,1010.2,32.948,1016.4,201.0,28.0,,346.7,,,338.9,,337.5,337.491,4,2,9,9,9
2019-10-16T06:37:47.000Z,26NA20191009,62.992,-51.123,,2020.0N,SOCATENHANCEDDOI,B,,3.933,4.24,1010.37,1010.1,32.948,1016.4,201.0,28.0,,348.0,,,339.7,,338.3,338.288,4,2,9,9,9
2019-10-16T06:39:20.000Z,26NA20191009,62.998,-51.13,,2020.0N,SOCATENHANCEDDOI,B,,4.02,4.23,1010.38,1010.2,32.948,1016.4,201.0,28.0,,349.3,,,342.5,,341.0,341.078,4,2,9,9,9
2019-10-16T06:40:52.000Z,26NA20191009,63.004,-51.137,,2020.0N,SOCATENHANCEDDOI,B,,4.032,4.3,1010.33,1010.0,35.0,1016.4,201.0,27.0,,350.7,,,342.8,,341.4,341.377,4,2,9,9,9
2019-10-16T06:42:25.000Z,26NA20191009,63.01,-51.143,,2020.0N,SOCATENHANCEDDOI,B,,4.042,4.32,1010.42,1010.0,35.0,1016.4,201.0,27.0,,351.4,,,343.4,,342.0,341.975,4,2,9,9,9
2019-10-16T06:43:57.000Z,26NA20191009,63.016,-51.151,,2020.0N,SOCATENHANCEDDOI,B,,4.03,4.34,1010.35,1010.0,35.0,1016.4,201.0,27.0,,351.0,,,342.5,,341.1,341.078,4,2,9,9,9
2019-10-16T06:45:30.000Z,26NA20191009,63.022,-51.158,,2020.0N,SOCATENHANCEDDOI,B,,4.026,4.32,1010.37,1010.0,35.0,1016.4,199.0,27.0,,350.3,,,342.1,,340.7,340.68,4,2,9,9,9
2019-10-16T06:47:02.000Z,26NA20191009,63.029,-51.165,,2020.0N,SOCATENHANCEDDOI,B,,4.027,4.32,1010.31,1009.8,35.0,1016.4,198.0,27.0,,350.1,,,341.9,,340.4,340.481,4,2,9,9,9
2019-10-16T06:48:56.000Z,26NA20191009,63.036,-51.173,,2020.0N,SOCATENHANCEDDOI,B,,4.014,4.31,1010.33,1010.1,35.0,1016.4,197.0,26.0,,350.8,,,342.6,,341.1,341.177,4,2,9,9,9
2019-10-16T06:50:28.000Z,26NA20191009,63.042,-51.18,,2020.0N,SOCATENHANCEDDOI,B,,4.069,4.32,1010.29,1009.9,35.0,1016.4,196.0,26.0,,351.5,,,343.9,,342.5,342.473,4,2,9,9,9
2019-10-16T06:52:02.000Z,26NA20191009,63.048,-51.187,,2020.0N,SOCATENHANCEDDOI,B,,4.084,4.35,1010.28,1009.9,35.0,1016.4,196.0,26.0,,350.9,,,343.0,,341.6,341.577,4,2,9,9,9
2019-10-16T06:53:35.000Z,26NA20191009,63.054,-51.194,,2020.0N,SOCATENHANCEDDOI,B,,4.097,4.37,1010.31,1010.0,35.0,1016.4,194.0,26.0,,350.1,,,342.2,,340.7,340.781,4,2,9,9,9
2019-10-16T06:55:07.000Z,26NA20191009,63.06,-51.2,,2020.0N,SOCATENHANCEDDOI,B,,4.092,4.38,1010.32,1009.9,35.0,1016.4,193.0,26.0,,348.9,,,340.8,,339.3,339.386,4,2,9,9,9
2019-10-16T06:56:40.000Z,26NA20191009,63.066,-51.207,,2020.0N,SOCATENHANCEDDOI,B,,4.078,4.37,1010.36,1009.8,35.0,1016.4,194.0,26.0,,348.2,,,339.9,,338.5,338.49,4,2,9,9,9
2019-10-16T06:58:12.000Z,26NA20191009,63.072,-51.214,,2020.0N,SOCATENHANCEDDOI,B,,4.059,4.36,1010.35,1009.8,35.0,1016.4,197.0,26.0,,348.1,,,339.7,,338.3,338.291,4,2,9,9,9
2019-10-16T06:59:45.000Z,26NA20191009,63.078,-51.221,,2020.0N,SOCATENHANCEDDOI,B,,4.095,4.36,1010.32,1009.9,35.0,1016.4,199.0,26.0,,348.7,,,340.9,,339.5,339.486,4,2,9,9,9
2019-10-16T07:01:18.000Z,26NA20191009,63.084,-51.228,,2020.0N,SOCATENHANCEDDOI,B,,4.152,4.4,1010.32,1009.8,35.0,1016.4,200.0,25.0,,351.8,,,344.2,,342.7,342.774,4,2,9,9,9
2019-10-16T07:02:50.000Z,26NA20191009,63.09,-51.235,,2020.0N,SOCATENHANCEDDOI,B,,4.158,4.43,1010.32,1009.6,35.0,1016.4,201.0,25.0,,353.2,,,345.1,,343.7,343.67,4,2,9,9,9
2019-10-16T07:04:23.000Z,26NA20191009,63.096,-51.241,,2020.0N,SOCATENHANCEDDOI,B,,4.139,4.44,1010.34,1009.7,35.0,1016.4,202.0,25.0,,352.8,,,344.3,,342.9,342.873,4,2,9,9,9
2019-10-16T07:05:55.000Z,26NA20191009,63.102,-51.248,,2020.0N,SOCATENHANCEDDOI,B,,4.141,4.43,1010.31,1009.7,35.0,1016.4,202.0,25.0,,351.4,,,343.1,,341.7,341.678,4,2,9,9,9
2019-10-16T07:07:27.000Z,26NA20191009,63.108,-51.255,,2020.0N,SOCATENHANCEDDOI,B,,4.104,4.43,1010.34,1009.8,35.0,1013.0,201.0,25.0,,350.4,,,341.7,,340.2,340.283,4,2,9,9,9
2019-10-16T07:09:00.000Z,26NA20191009,63.114,-51.262,,2020.0N,SOCATENHANCEDDOI,B,,4.081,4.39,1010.34,1009.5,35.0,1013.0,200.0,25.0,,349.8,,,341.2,,339.8,339.785,4,2,9,9,9
2019-10-16T07:10:33.000Z,26NA20191009,63.12,-51.268,,2020.0N,SOCATENHANCEDDOI,B,,4.066,4.37,1010.32,1009.5,35.0,1013.0,200.0,25.0,,348.6,,,340.0,,338.6,338.59,4,2,9,9,9
2019-10-16T07:12:05.000Z,26NA20191009,63.127,-51.275,,2020.0N,SOCATENHANCEDDOI,B,,4.042,4.35,1010.29,1009.6,35.0,1013.0,199.0,25.0,,347.7,,,339.2,,337.8,337.793,4,2,9,9,9
2019-10-16T07:13:38.000Z,26NA20191009,63.133,-51.282,,2020.0N,SOCATENHANCEDDOI,B,,4.033,4.34,1010.17,1009.8,35.0,1013.0,198.0,25.0,,347.0,,,338.6,,337.2,337.195,4,2,9,9,9
2019-10-16T07:15:10.000Z,26NA20191009,63.139,-51.289,,2020.0N,SOCATENHANCEDDOI,B,,4.018,4.33,1010.33,1009.6,35.0,1013.0,198.0,25.0,,346.5,,,338.0,,336.6,336.597,4,2,9,9,9
2019-10-16T07:16:43.000Z,26NA20191009,63.145,-51.296,,2020.0N,SOCATENHANCEDDOI,B,,4.045,4.31,1010.31,1009.5,35.0,1013.0,197.0,25.0,,346.3,,,338.4,,337.0,336.996,4,2,9,9,9
2019-10-16T07:18:15.000Z,26NA20191009,63.151,-51.303,,2020.0N,SOCATENHANCEDDOI,B,,4.02,4.33,1010.31,1009.5,35.0,1013.0,197.0,25.0,,346.4,,,337.8,,336.4,336.398,4,2,9,9,9
2019-10-16T07:19:48.000Z,26NA20191009,63.157,-51.31,,2020.0N,SOCATENHANCEDDOI,B,,4.015,4.31,1010.33,1009.5,35.0,1013.0,195.0,25.0,,346.4,,,338.0,,336.6,336.597,4,2,9,9,9
2019-10-16T07:21:20.000Z,26NA20191009,63.163,-51.316,,2020.0N,SOCATENHANCEDDOI,B,,4.066,4.31,1010.2,1009.4,35.0,1013.0,193.0,25.0,,346.6,,,339.0,,337.6,337.594,4,2,9,9,9
2019-10-16T07:22:53.000Z,26NA20191009,63.169,-51.324,,2020.0N,SOCATENHANCEDDOI,B,,4.104,4.35,1010.22,1009.5,35.0,1013.0,192.0,25.0,,347.3,,,339.7,,338.3,338.292,4,2,9,9,9
2019-10-16T07:24:25.000Z,26NA20191009,63.175,-51.331,,2020.0N,SOCATENHANCEDDOI,B,,4.092,4.39,1010.35,1009.4,35.0,1013.0,191.0,25.0,,347.7,,,339.3,,337.9,337.893,4,2,9,9,9
2019-10-16T07:25:58.000Z,26NA20191009,63.181,-51.338,,2020.0N,SOCATENHANCEDDOI,B,,4.112,4.38,1010.37,1009.3,35.0,1013.0,190.0,25.0,,347.9,,,339.8,,338.4,338.392,4,2,9,9,9
2019-10-16T07:27:30.000Z,26NA20191009,63.187,-51.345,,2020.0N,SOCATENHANCEDDOI,B,,4.105,4.4,1010.31,1009.4,35.0,1013.0,187.0,25.0,,348.4,,,340.0,,338.6,338.591,4,2,9,9,9
2019-10-16T07:29:03.000Z,26NA20191009,63.193,-51.352,,2020.0N,SOCATENHANCEDDOI,B,,4.101,4.39,1010.31,1009.4,35.0,1013.0,184.0,25.0,,348.7,,,340.3,,338.9,338.889,4,2,9,9,9
2019-10-16T07:30:35.000Z,26NA20191009,63.199,-51.36,,2020.0N,SOCATENHANCEDDOI,B,,4.07,4.39,1010.34,1009.4,35.0,1013.0,182.0,25.0,,348.5,,,339.7,,338.3,338.291,4,2,9,9,9
2019-10-16T07:32:08.000Z,26NA20191009,63.205,-51.366,,2020.0N,SOCATENHANCEDDOI,B,,4.071,4.37,1010.34,1009.4,35.0,1013.0,181.0,25.0,,347.8,,,339.3,,337.9,337.893,4,2,9,9,9
2019-10-16T07:33:41.000Z,26NA20191009,63.211,-51.373,,2020.0N,SOCATENHANCEDDOI,B,,4.07,4.36,1010.36,1009.3,35.0,1013.0,182.0,25.0,,346.3,,,338.0,,336.6,336.599,4,2,9,9,9
2019-10-16T07:35:13.000Z,26NA20191009,63.218,-51.381,,2020.0N,SOCATENHANCEDDOI,B,,4.059,4.37,1010.31,1009.3,35.0,1013.0,183.0,25.0,,345.2,,,336.6,,335.2,335.204,4,2,9,9,9
2019-10-16T07:36:46.000Z,26NA20191009,63.224,-51.387,,2020.0N,SOCATENHANCEDDOI,B,,4.068,4.36,1010.3,1009.2,35.0,1013.0,184.0,25.0,,344.2,,,335.8,,334.4,334.408,4,2,9,9,9
2019-10-16T07:38:18.000Z,26NA20191009,63.23,-51.394,,2020.0N,SOCATENHANCEDDOI,B,,4.055,4.36,1010.28,1009.2,35.0,1013.0,186.0,25.0,,343.0,,,334.5,,333.1,333.113,4,2,9,9,9
2019-10-16T07:39:51.000Z,26NA20191009,63.236,-51.401,,2020.0N,SOCATENHANCEDDOI,B,,4.051,4.35,1010.32,1009.3,35.0,1013.0,189.0,25.0,,342.0,,,333.7,,332.3,332.316,4,2,9,9,9
2019-10-16T07:41:23.000Z,26NA20191009,63.242,-51.408,,2020.0N,SOCATENHANCEDDOI,B,,4.038,4.34,1010.33,1009.0,35.0,1013.0,192.0,25.0,,341.4,,,333.0,,331.6,331.619,4,2,9,9,9
2019-10-16T07:42:56.000Z,26NA20191009,63.249,-51.415,,2020.0N,SOCATENHANCEDDOI,B,,4.041,4.34,1010.33,1009.1,35.0,1013.0,197.0,25.0,,341.2,,,332.8,,331.5,331.42,4,2,9,9,9
2019-10-16T07:44:28.000Z,26NA20191009,63.255,-51.422,,2020.0N,SOCATENHANCEDDOI,B,,4.022,4.33,1010.37,1009.1,35.0,1013.0,194.0,25.0,,341.1,,,332.6,,331.2,331.22,4,2,9,9,9
2019-10-16T07:46:01.000Z,26NA20191009,63.261,-51.429,,2020.0N,SOCATENHANCEDDOI,B,,4.004,4.32,1010.39,1009.1,35.0,1013.0,190.0,25.0,,340.9,,,332.3,,330.9,330.921,4,2,9,9,9
2019-10-16T07:47:33.000Z,26NA20191009,63.267,-51.436,,2020.0N,SOCATENHANCEDDOI,B,,4.002,4.31,1010.37,1009.1,35.0,1013.0,186.0,25.0,,340.8,,,332.3,,330.9,330.921,4,2,9,9,9
2019-10-16T07:49:27.000Z,26NA20191009,63.275,-51.445,,2020.0N,SOCATENHANCEDDOI,B,,3.99,4.29,1010.34,1009.3,35.0,1013.0,182.0,25.0,,341.3,,,333.0,,331.6,331.618,4,2,9,9,9
2019-10-16T07:50:59.000Z,26NA20191009,63.281,-51.452,,2020.0N,SOCATENHANCEDDOI,B,,3.981,4.28,1010.33,1009.2,35.0,1013.0,179.0,25.0,,341.5,,,333.1,,331.8,331.717,4,2,9,9,9
2019-10-16T07:52:32.000Z,26NA20191009,63.288,-51.459,,2020.0N,SOCATENHANCEDDOI,B,,3.98,4.28,1010.35,1009.1,35.0,1013.0,176.0,25.0,,341.9,,,333.5,,332.1,332.116,4,2,9,9,9
2019-10-16T07:54:04.000Z,26NA20191009,63.294,-51.467,,2020.0N,SOCATENHANCEDDOI,B,,4.001,4.28,1010.34,1009.2,35.0,1013.0,174.0,25.0,,342.9,,,334.8,,333.4,333.411,4,2,9,9,9
2019-10-16T07:55:37.000Z,26NA20191009,63.3,-51.474,,2020.0N,SOCATENHANCEDDOI,B,,3.981,4.29,1010.31,1009.1,35.0,1013.0,173.0,25.0,,344.4,,,335.9,,334.5,334.506,4,2,9,9,9
2019-10-16T07:57:09.000Z,26NA20191009,63.306,-51.481,,2020.0N,SOCATENHANCEDDOI,B,,3.997,4.28,1010.32,1009.1,35.0,1013.0,174.0,25.0,,344.5,,,336.2,,334.9,334.805,4,2,9,9,9
2019-10-16T07:58:42.000Z,26NA20191009,63.312,-51.488,,2020.0N,SOCATENHANCEDDOI,B,,3.987,4.29,1010.3,1009.0,35.0,1013.0,176.0,26.0,,344.3,,,335.7,,334.4,334.307,4,2,9,9,9
2019-10-16T08:00:14.000Z,26NA20191009,63.318,-51.496,,2020.0N,SOCATENHANCEDDOI,B,,4.011,4.28,1010.33,1009.0,35.0,1013.0,179.0,26.0,,345.0,,,336.9,,335.5,335.502,4,2,9,9,9
2019-10-16T08:01:47.000Z,26NA20191009,63.324,-51.503,,2020.0N,SOCATENHANCEDDOI,B,,4.061,4.31,1010.26,1009.0,35.0,1013.0,184.0,26.0,,346.8,,,338.9,,337.5,337.495,4,2,9,9,9
2019-10-16T08:03:20.000Z,26NA20191009,63.331,-51.511,,2020.0N,SOCATENHANCEDDOI,B,,4.104,4.37,1010.26,1009.0,35.0,1013.0,190.0,26.0,,350.1,,,341.9,,340.5,340.483,4,2,9,9,9
2019-10-16T08:04:52.000Z,26NA20191009,63.337,-51.519,,2020.0N,SOCATENHANCEDDOI,B,,4.125,4.4,1010.26,1009.0,35.0,1013.0,196.0,26.0,,354.4,,,346.0,,344.5,344.567,4,2,9,9,9
2019-10-16T08:06:25.000Z,26NA20191009,63.343,-51.526,,2020.0N,SOCATENHANCEDDOI,B,,4.093,4.42,1010.25,1009.0,35.0,1013.0,199.0,26.0,,357.8,,,348.5,,347.1,347.056,4,2,9,9,9
2019-10-16T08:07:57.000Z,26NA20191009,63.349,-51.534,,2020.0N,SOCATENHANCEDDOI,B,,4.052,4.4,1010.26,1008.7,35.0,1013.0,202.0,26.0,,359.3,,,349.6,,348.1,348.151,4,2,9,9,9
2019-10-16T08:09:30.000Z,26NA20191009,63.354,-51.542,,2020.0N,SOCATENHANCEDDOI,B,,4.071,4.36,1010.23,1008.8,35.0,1013.0,203.0,26.0,,359.7,,,350.9,,349.4,349.446,4,2,9,9,9
2019-10-16T08:11:02.000Z,26NA20191009,63.36,-51.549,,2020.0N,SOCATENHANCEDDOI,B,,4.209,4.38,1010.25,1008.9,35.0,1013.0,205.0,26.0,,360.6,,,353.6,,352.1,352.137,4,2,9,9,9
2019-10-16T08:12:35.000Z,26NA20191009,63.367,-51.557,,2020.0N,SOCATENHANCEDDOI,B,,4.218,4.48,1010.22,1008.8,35.0,1013.0,205.0,26.0,,362.2,,,353.7,,352.3,352.237,4,2,9,9,9
2019-10-16T08:14:07.000Z,26NA20191009,63.373,-51.564,,2020.0N,SOCATENHANCEDDOI,B,,4.208,4.51,1010.18,1008.8,35.0,1013.0,204.0,26.0,,362.9,,,353.8,,352.3,352.336,4,2,9,9,9
2019-10-16T08:15:40.000Z,26NA20191009,63.379,-51.571,,2020.0N,SOCATENHANCEDDOI,B,,4.225,4.5,1010.16,1008.7,35.0,1013.0,205.0,26.0,,363.5,,,354.8,,353.3,353.333,4,2,9,9,9
2019-10-16T08:17:12.000Z,26NA20191009,63.385,-51.579,,2020.0N,SOCATENHANCEDDOI,B,,4.255,4.52,1010.12,1008.6,35.0,1013.0,204.0,26.0,,363.6,,,355.0,,353.5,353.533,4,2,9,9,9
2019-10-16T08:18:45.000Z,26NA20191009,63.391,-51.586,,2020.0N,SOCATENHANCEDDOI,B,,4.328,4.55,1010.14,1008.7,35.0,1013.0,202.0,26.0,,363.8,,,355.9,,354.4,354.43,4,2,9,9,9
2019-10-16T08:20:17.000Z,26NA20191009,63.397,-51.593,,2020.0N,SOCATENHANCEDDOI,B,,4.397,4.62,1010.1,1008.6,35.0,1013.0,199.0,26.0,,364.1,,,356.1,,354.6,354.631,4,2,9,9,9
2019-10-16T08:21:50.000Z,26NA20191009,63.403,-51.6,,2020.0N,SOCATENHANCEDDOI,B,,4.382,4.68,1010.12,1008.6,35.0,1013.0,198.0,26.0,,363.6,,,354.5,,353.0,353.037,4,2,9,9,9
2019-10-16T08:23:23.000Z,26NA20191009,63.409,-51.607,,2020.0N,SOCATENHANCEDDOI,B,,4.372,4.67,1010.14,1008.5,35.0,1013.0,198.0,27.0,,362.3,,,353.1,,351.7,351.643,4,2,9,9,9
2019-10-16T08:24:55.000Z,26NA20191009,63.414,-51.614,,2020.0N,SOCATENHANCEDDOI,B,,4.352,4.67,1010.14,1008.5,35.0,1013.0,199.0,27.0,,360.6,,,351.1,,349.7,349.651,4,2,9,9,9
2019-10-16T08:26:28.000Z,26NA20191009,63.42,-51.622,,2020.0N,SOCATENHANCEDDOI,B,,4.294,4.63,1010.12,1008.5,35.0,1013.0,197.0,27.0,,359.0,,,349.3,,347.9,347.857,4,2,9,9,9
2019-10-16T08:28:00.000Z,26NA20191009,63.426,-51.629,,2020.0N,SOCATENHANCEDDOI,B,,4.284,4.59,1010.14,1008.5,35.0,1013.0,196.0,27.0,,357.9,,,348.8,,347.4,347.359,4,2,9,9,9
2019-10-16T08:29:33.000Z,26NA20191009,63.432,-51.636,,2020.0N,SOCATENHANCEDDOI,B,,4.229,4.58,1010.12,1008.6,35.0,1013.0,195.0,27.0,,357.4,,,347.6,,346.2,346.163,4,2,9,9,9
2019-10-16T08:31:05.000Z,26NA20191009,63.438,-51.643,,2020.0N,SOCATENHANCEDDOI,B,,4.187,4.53,1010.14,1008.5,35.0,1013.0,195.0,27.0,,356.7,,,347.0,,345.6,345.565,4,2,9,9,9
2019-10-16T08:32:38.000Z,26NA20191009,63.444,-51.65,,2020.0N,SOCATENHANCEDDOI,B,,4.171,4.49,1010.15,1008.5,35.0,1013.0,196.0,27.0,,355.5,,,346.3,,344.8,344.867,4,2,9,9,9
2019-10-16T08:34:10.000Z,26NA20191009,63.45,-51.657,,2020.0N,SOCATENHANCEDDOI,B,,4.163,4.49,1010.11,1008.3,35.0,1013.0,196.0,27.0,,354.3,,,344.9,,343.5,343.473,4,2,9,9,9
2019-10-16T08:38:40.000Z,26NA20191009,63.468,-51.678,,2020.0N,SOCATENHANCEDDOI,B,,4.147,4.45,1010.08,1008.2,35.0,1013.0,199.0,27.0,,,,,,,,,0,9,9,9,9